Location: ??????
(56.0120°N, 39.1740°E)
Time: 07:53:56
(UTC+00:00)

Cosmos 921 Rocket - Pass Details

Date: 14 April 2026
Orbit: 563 x 620 km, 75.8° (Epoch: 9 May)

Event Time Altitude Azimuth Distance (km) Brightness Sun altitude
Rises 20:51:15 0° 330° (NNW) 2,910 7.7 -24.0°
Reaches altitude 10° 20:53:38 10° 322° (NW) 1,996 6.5 -24.0°
Enters shadow 20:57:30 35° 263° (W) 1,001 4.1 -24.1°
